Wind_Speed
19 13 27 35 40 39 37 38 40 38 39 38 37 38 38 34 32 33 32 28 23 19
22 12 20 24 27 42 45 42 41 39 38 38 38 38 38 37 33 29 31 29 23 22
27 18 2 19 24 25 37 44 45 42 40 38 36 37 37 36 33 32 30 29 26 22
34 21 10 10 20 22 29 38 46 47 45 43 41 39 39 38 36 37 34 29 27 24
35 30 19 7 11 21 25 27 28 40 44 43 41 39 39 39 36 36 34 31 27 25
39 36 28 16 9 14 21 26 26 25 33 40 42 36 35 36 34 32 30 28 27 27
40 36 31 22 12 15 16 22 25 26 24 32 37 37 32 33 31 31 29 27 26 24
38 39 33 29 21 17 17 22 23 25 23 25 30 32 32 32 34 33 31 25 25 26
38 38 36 34 27 19 18 20 19 22 23 20 22 24 28 32 33 33 36 34 28 22
38 37 38 36 31 28 23 20 18 20 22 25 25 25 26 30 33 32 30 27 24 22
37 34 35 35 34 32 24 21 19 18 18 22 23 24 26 30 30 26 25 25 24 26
34 31 33 33 32 30 27 26 29 20 18 20 23 24 25 27 28 26 24 24 24 27
32 29 32 31 30 28 27 25 25 25 25 24 25 21 23 25 25 25 24 23 24 24
29 28 29 28 27 25 26 25 23 22 25 23 16 15 16 15 18 23 22 21 24 25
Wind_Direction
330 249 191 184 179 178 180 183 183 184 185 183 181 182 181 178 180 184 181 172 165 159
354 342 205 201 189 183 184 186 184 183 182 183 185 184 184 183 182 182 182 177 167 158
0 350 267 194 180 191 186 184 184 182 181 181 182 183 184 184 183 176 175 176 170 163
8 9 24 190 182 183 185 185 181 182 179 179 180 181 180 177 175 176 171 172 169 160
8 16 27 45 162 189 188 179 179 179 180 180 176 179 180 175 174 173 168 170 169 162
8 10 17 36 96 167 177 181 175 176 175 177 176 177 178 173 169 169 168 165 163 157
7 7 15 32 77 117 148 164 173 182 186 174 171 174 173 169 166 162 163 163 161 159
10 16 14 28 47 91 128 135 146 154 165 166 178 171 176 170 167 167 158 163 164 162
14 19 12 26 34 61 92 114 135 148 144 140 144 146 163 171 163 162 155 152 150 149
9 13 17 19 30 39 55 84 114 124 148 150 139 139 139 149 148 146 150 154 158 153
4 8 19 22 22 33 46 63 87 106 122 142 143 145 150 154 150 159 159 159 154 150
1 6 14 19 17 28 38 56 66 86 109 116 128 129 132 141 138 140 145 146 149 149
8 8 11 17 21 32 37 46 66 69 80 106 106 115 120 129 129 129 134 140 144 149
18 9 13 17 29 35 41 47 48 59 66 82 115 115 120 127 134 138 140 145 150 153
Height
713 714 713 716 717 724 731 736 743 749 756 762 768 773 779 784 789 794 800 805 808 812
716 711 711 717 720 716 722 731 739 745 751 758 764 769 776 781 786 792 799 803 808 811
720 715 710 713 715 721 720 723 732 740 747 754 759 765 771 778 784 790 796 801 806 810
725 720 712 712 713 719 721 724 726 733 739 747 755 762 767 773 780 786 792 799 804 809
733 725 719 715 712 716 719 722 729 730 736 743 748 759 763 769 777 782 788 795 801 806
736 729 728 720 715 719 720 723 725 736 736 736 743 753 762 765 772 779 787 794 800 806
747 741 736 729 728 715 718 719 729 733 740 740 739 751 758 764 773 778 787 795 799 805
757 747 744 735 728 726 729 725 727 729 741 745 746 744 758 762 770 779 782 793 800 804
762 756 753 741 739 737 735 727 731 734 742 746 747 750 756 766 769 779 780 792 801 805
767 763 755 750 748 741 733 732 739 738 742 749 753 756 761 765 769 776 786 790 796 802
778 772 766 761 755 747 751 748 743 746 746 754 755 757 765 765 768 780 786 793 794 801
788 781 773 769 764 760 756 752 748 750 754 757 759 762 763 768 771 780 788 791 797 803
793 787 781 776 770 766 763 760 759 760 759 762 761 766 768 772 779 784 789 796 801 806
796 791 789 784 779 777 773 769 767 767 768 767 771 771 774 779 784 788 794 798 802 807